This is the latest recevied weather packets stored in our database for station/object VE3VGJ. If no packets are shown the sender has not sent any weather packets the latest 10 day(s).
| Time | Temp. | Humidity | Pressure | Rain* | Wind** | Luminosity | Snow |
|---|---|---|---|---|---|---|---|
| 1777489948 | 10.56° C | 79% | 1009.6 hPa | 0 mm | - | 144 W/m² | - |
| 1777489646 | 10.56° C | 79% | 1009.7 hPa | 0 mm | - | 124 W/m² | - |
| 1777489341 | 10.56° C | 80% | 1009.8 hPa | 0 mm | - | 141 W/m² | - |
| 1777489039 | 10.56° C | 80% | 1009.9 hPa | 0 mm | - | 171 W/m² | - |
| 1777488735 | 10.56° C | 80% | 1010 hPa | 0 mm | - | 190 W/m² | - |
| 1777488433 | 10.56° C | 81% | 1009.9 hPa | 0 mm | - | 142 W/m² | - |
| 1777488131 | 10.56° C | 81% | 1009.6 hPa | 0 mm | - | 160 W/m² | - |
| 1777487829 | 10.56° C | 80% | 1009.8 hPa | 0 mm | - | 170 W/m² | - |
| 1777487527 | 10.56° C | 80% | 1009.9 hPa | 0 mm | - | 145 W/m² | - |
| 1777487224 | 10.56° C | 79% | 1009.7 hPa | 0 mm | - | 180 W/m² | - |
| 1777486920 | 10.56° C | 80% | 1009.7 hPa | 0 mm | - | 152 W/m² | - |
| 1777486616 | 10.56° C | 79% | 1009.9 hPa | 0 mm | - | 114 W/m² | - |
| 1777486314 | 11.11° C | 81% | 1009.7 hPa | 0 mm | - | 120 W/m² | - |
| 1777486011 | 10.56° C | 82% | 1009.4 hPa | 0 mm | - | 144 W/m² | - |
| 1777485708 | 10.56° C | 81% | 1009.5 hPa | 0 mm | - | 135 W/m² | - |
| 1777485403 | 10.56° C | 83% | 1009.6 hPa | 0 mm | - | 139 W/m² | - |
| 1777485099 | 10.56° C | 84% | 1009.3 hPa | 0 mm | - | 134 W/m² | - |
| 1777484797 | 10.56° C | 84% | 1009.4 hPa | 0 mm | - | 180 W/m² | - |
| 1777484492 | 10.56° C | 83% | 1009.5 hPa | 0 mm | - | 182 W/m² | - |
| 1777484190 | 10.56° C | 83% | 1009.7 hPa | 0 mm | - | 139 W/m² | - |
| 1777483886 | 10.56° C | 84% | 1009.9 hPa | 0 mm | - | 141 W/m² | - |
| 1777483583 | 10.56° C | 84% | 1009.8 hPa | 0 mm | - | 141 W/m² | - |
| 1777483282 | 10.56° C | 84% | 1010 hPa | 0 mm | - | 136 W/m² | - |
| 1777482979 | 10.56° C | 84% | 1010 hPa | 1.27 mm | - | 193 W/m² | - |
| 1777482675 | 10.56° C | 84% | 1009.9 hPa | 3.05 mm | - | 259 W/m² | - |
* Rain latest hour (hover to see other rain measurements)
** Current wind speed in m/s (hover to see current wind gust speed)